H1 CPF 2 NER 2025 10 26 9 299 01 glonass138 H2 1805301 9138 43508 2025 10 26 0 0 0 2025 10 29 23 45 0 900 1 1 0 0 0 1 H9 10 0 60974 0.00000 0 2374946.307 15872838.687 19842691.363 10 0 60974 900.00000 0 649082.834 14006772.863 21321749.656 10 0 60974 1800.00000 0 -1329792.667 12172436.597 22387263.225 10 0 60974 2700.00000 0 -3523745.204 10428279.805 23018479.825 10 0 60974 3600.00000 0 -5884348.282 8825719.915 23203051.420 10 0 60974 4500.00000 0 -8354468.370 7407104.666 22937279.931 10 0 60974 5400.00000 0 -10870424.109 6204069.685 22226197.476 10 0 60974 6300.00000 0 -13364432.165 5236359.158 21083478.933 10 0 60974 7200.00000 0 -15767239.291 4511158.737 19531187.691 10 0 60974 8100.00000 0 -18010832.109 4022968.566 17599358.516 10 0 60974 9000.00000 0 -20031112.365 3754021.809 15325424.493 10 0 60974 9900.00000 0 -21770426.254 3675231.201 12753498.161 10 0 60974 10800.00000 0 -23179842.031 3747623.752 9933519.878 10 0 60974 11700.00000 0 -24221080.167 3924203.042 6920289.360 10 0 60974 12600.00000 0 -24868014.504 4152160.069 3772398.985 10 0 60974 13500.00000 0 -25107680.719 4375338.554 551089.749 10 0 60974 14400.00000 0 -24940749.112 4536849.426 -2680947.361 10 0 60974 15300.00000 0 -24381441.380 4581722.558 -5860800.343 10 0 60974 16200.00000 0 -23456894.769 4459482.011 -8926570.508 10 0 60974 17100.00000 0 -22206000.551 4126534.203 -11818586.985 10 0 60974 18000.00000 0 -20677766.231 3548266.398 -14480576.532 10 0 60974 18900.00000 0 -18929271.173 2700765.340 -16860764.999 10 0 60974 19800.00000 0 -17023302.464 1572082.201 -18912888.302 10 0 60974 20700.00000 0 -15025771.265 162989.499 -20597092.881 10 0 60974 21600.00000 0 -13003018.770 -1512802.680 -21880708.220 10 0 60974 22500.00000 0 -11019125.189 -3428980.801 -22738876.738 10 0 60974 23400.00000 0 -9133334.490 -5547498.714 -23155029.479 10 0 60974 24300.00000 0 -7397702.328 -7819949.053 -23121199.152 10 0 60974 25200.00000 0 -5855064.665 -10189378.120 -22638165.335 10 0 60974 26100.00000 0 -4537410.841 -12592468.743 -21715429.853 10 0 60974 27000.00000 0 -3464727.534 -14962000.395 -20371023.549 10 0 60974 27900.00000 0 -2644360.243 -17229484.474 -18631148.754 10 0 60974 28800.00000 0 -2070917.162 -19327865.422 -16529664.771 10 0 60974 29700.00000 0 -1726717.660 -21194175.723 -14107426.535 10 0 60974 30600.00000 0 -1582764.867 -22772034.806 -11411489.321 10 0 60974 31500.00000 0 -1600200.054 -24013888.335 -8494194.857 10 0 60974 32400.00000 0 -1732176.436 -24882895.162 -5412156.446 10 0 60974 33300.00000 0 -1926072.577 -25354383.874 -2225162.579 10 0 60974 34200.00000 0 -2125951.484 -25416818.722 1004979.784 10 0 60974 35100.00000 0 -2275161.228 -25072235.162 4215640.043 10 0 60974 36000.00000 0 -2318967.136 -24336127.281 7344573.881 10 0 60974 36900.00000 0 -2207104.328 -23236792.172 10331125.002 10 0 60974 37800.00000 0 -1896142.772 -21814158.940 13117395.641 10 0 60974 38700.00000 0 -1351564.931 -20118151.278 15649363.538 10 0 60974 39600.00000 0 -549468.125 -18206651.958 17877924.107 10 0 60974 40500.00000 0 522180.628 -16143153.883 19759838.102 10 0 60974 41400.00000 0 1862790.909 -13994195.223 21258566.984 10 0 60974 42300.00000 0 3458929.136 -11826684.993 22344980.245 10 0 60974 43200.00000 0 5284643.437 -9705229.793 22997921.399 10 0 60974 44100.00000 0 7302321.310 -7689572.312 23204621.910 10 0 60974 45000.00000 0 9464046.105 -5832247.600 22960954.970 10 0 60974 45900.00000 0 11713397.636 -4176554.081 22271523.963 10 0 60974 46800.00000 0 13987623.659 -2754923.370 21149583.281 10 0 60974 47700.00000 0 16220093.244 -1587756.541 19616792.224 10 0 60974 48600.00000 0 18342931.005 -682775.202 17702805.732 10 0 60974 49500.00000 0 20289723.103 -34914.400 15444708.792 10 0 60974 50400.00000 0 21998182.391 373238.276 12886304.448 10 0 60974 51300.00000 0 23412661.164 570475.954 10077268.350 10 0 60974 52200.00000 0 24486405.931 595519.043 7072185.623 10 0 60974 53100.00000 0 25183458.832 495136.798 3929488.529 10 0 60974 54000.00000 0 25480125.066 321923.888 710315.729 10 0 60974 54900.00000 0 25365943.711 131826.900 -2522684.215 10 0 60974 55800.00000 0 24844120.321 -18473.343 -5706580.869 10 0 60974 56700.00000 0 23931402.575 -74211.424 -8779396.587 10 0 60974 57600.00000 0 22657403.960 14894.772 -11681322.556 10 0 60974 58500.00000 0 21063404.078 292268.162 -14355891.404 10 0 60974 59400.00000 0 19200676.438 792390.509 -16751082.589 10 0 60974 60300.00000 0 17128414.593 1539103.692 -18820338.360 10 0 60974 61200.00000 0 14911344.438 2544366.946 -20523470.158 10 0 60974 62100.00000 0 12617123.404 3807523.244 -21827437.840 10 0 60974 63000.00000 0 10313635.958 5315106.280 -22706986.934 10 0 60974 63900.00000 0 8066298.687 7041196.499 -23145132.152 10 0 60974 64800.00000 0 5935487.369 8948311.515 -23133478.580 10 0 60974 65700.00000 0 3974192.790 10988793.772 -22672375.178 10 0 60974 66600.00000 0 2226002.090 13106637.580 -21770898.464 10 0 60974 67500.00000 0 723488.439 15239679.387 -20446667.462 10 0 60974 68400.00000 0 -512925.496 17322060.110 -18725494.049 10 0 60974 69300.00000 0 -1475584.661 19286857.093 -16640875.901 10 0 60974 70200.00000 0 -2169675.521 21068776.271 -14233342.060 10 0 60974 71100.00000 0 -2612755.547 22606792.690 -11549663.854 10 0 60974 72000.00000 0 -2833759.777 23846629.571 -8641946.434 10 0 60974 72900.00000 0 -2871527.701 24742972.947 -5566618.402 10 0 60974 73800.00000 0 -2772913.646 25261329.767 -2383338.955 10 0 60974 74700.00000 0 -2590561.179 25379452.238 846156.379 10 0 60974 75600.00000 0 -2380435.993 25088269.196 4059249.219 10 0 60974 76500.00000 0 -2199221.728 24392285.846 7193648.042 10 0 60974 77400.00000 0 -2101688.852 23309435.281 10188590.843 10 0 60974 78300.00000 0 -2138147.713 21870388.060 12986017.703 10 0 60974 79200.00000 0 -2352093.295 20117348.517 15531690.890 10 0 60974 80100.00000 0 -2778141.135 18102387.825 17776241.164 10 0 60974 81000.00000 0 -3440341.626 15885382.884 19676120.532 10 0 60974 81900.00000 0 -4350944.221 13531646.330 21194443.505 10 0 60974 82800.00000 0 -5509664.286 11109345.661 22301701.049 10 0 60974 83700.00000 0 -6903484.532 8686818.048 22976333.785 10 0 60974 84600.00000 0 -8507000.808 6329891.628 23205153.581 10 0 60974 85500.00000 0 -10283299.447 4099323.872 22983605.332 10 0 60975 0.00000 0 -12185331.096 2048462.903 22315863.676 10 0 60975 900.00000 0 -14157726.482 221227.362 21214761.763 10 0 60975 1800.00000 0 -16138977.317 -1349508.891 19701553.632 10 0 60975 2700.00000 0 -18063896.036 -2643063.921 17805512.634 10 0 60975 3600.00000 0 -19866250.037 -3651576.322 15563373.360 10 0 60975 4500.00000 0 -21481461.792 -4380090.290 13018626.609 10 0 60975 5400.00000 0 -22849261.695 -4846093.620 10220680.192 10 0 60975 6300.00000 0 -23916182.095 -5078528.349 7223901.231 10 0 60975 7200.00000 0 -24637787.081 -5116316.087 4086558.304 10 0 60975 8100.00000 0 -24980543.346 -5006460.891 869684.081 10 0 60975 9000.00000 0 -24923252.346 -4801810.693 -2364118.920 10 0 60975 9900.00000 0 -24457982.390 -4558573.060 -5551905.384 10 0 60975 10800.00000 0 -23590460.517 -4333691.757 -8631622.101 10 0 60975 11700.00000 0 -22339907.012 -4182196.644 -11543325.528 10 0 60975 12600.00000 0 -20738319.208 -4154640.571 -14230357.119 10 0 60975 13500.00000 0 -18829234.728 -4294733.178 -16640452.567 10 0 60975 14400.00000 0 -16666026.381 -4637272.908 -18726762.683 10 0 60975 15300.00000 0 -14309800.758 -5206465.621 -20448765.640 10 0 60975 16200.00000 0 -11826989.097 -6014701.489 -21773052.833 10 0 60975 17100.00000 0 -9286731.627 -7061842.234 -22673973.455 10 0 60975 18000.00000 0 -6758164.946 -8335048.944 -23134125.826 10 0 60975 18900.00000 0 -4307725.545 -9809157.824 -23144686.748 10 0 60975 19800.00000 0 -1996581.392 -11447588.148 -22705573.377 10 0 60975 20700.00000 0 121702.196 -13203744.348 -21825435.293 10 0 60975 21600.00000 0 2003166.461 -15022853.562 -20521477.704 10 0 60975 22500.00000 0 3615050.949 -16844161.889 -18819119.753 10 0 60975 23400.00000 0 4936908.535 -18603397.634 -16751495.007 10 0 60975 24300.00000 0 5961199.168 -20235398.828 -14358803.982 10 0 60975 25200.00000 0 6693339.507 -21676795.476 -11687531.345 10 0 60975 26100.00000 0 7151208.277 -22868634.694 -8789542.913 10 0 60975 27000.00000 0 7364129.832 -23758839.248 -5721079.840 10 0 60975 27900.00000 0 7371380.104 -24304396.986 -2541669.322 10 0 60975 28800.00000 0 7220278.942 -24473189.719 687027.172 10 0 60975 29700.00000 0 6963950.094 -24245385.241 3902405.997 10 0 60975 30600.00000 0 6658843.808 -23614334.249 7042130.806 10 0 60975 31500.00000 0 6362126.883 -22586934.645 10045336.111 10 0 60975 32400.00000 0 6129050.403 -21183447.776 12853801.882 10 0 60975 33300.00000 0 6010406.200 -19436773.997 15413076.747 10 0 60975 34200.00000 0 6050179.314 -17391217.331 17673528.416 10 0 60975 35100.00000 0 6283495.397 -15100790.111 19591301.473 10 0 60975 36000.00000 0 6734949.730 -12627127.475 21129164.521 10 0 60975 36900.00000 0 7417388.578 -10037097.623 22257230.727 10 0 60975 37800.00000 0 8331194.834 -7400206.217 22953538.230 10 0 60975 38700.00000 0 9464108.996 -4785901.734 23204479.413 10 0 60975 39600.00000 0 10791594.311 -2260892.748 23005070.694 10 0 60975 40500.00000 0 12277732.321 113412.387 22359057.376 10 0 60975 41400.00000 0 13876612.975 2283237.915 21278850.947 10 0 60975 42300.00000 0 15534162.710 4204448.701 19785299.250 10 0 60975 43200.00000 0 17190335.394 5844150.865 17907293.004 10 0 60975 44100.00000 0 18781575.558 7181818.603 15681215.179 10 0 60975 45000.00000 0 20243451.365 8209900.377 13150242.908 10 0 60975 45900.00000 0 21513347.194 8933879.307 10363514.524 10 0 60975 46800.00000 0 22533102.543 9371785.503 7375177.289 10 0 60975 47700.00000 0 23251485.729 9553181.182 4243333.980 10 0 60975 48600.00000 0 23626397.305 9517661.896 1028908.954 10 0 60975 49500.00000 0 23626709.250 9312937.869 -2205543.841 10 0 60975 50400.00000 0 23233661.156 8992577.533 -5397066.851 10 0 60975 51300.00000 0 22441753.422 8613509.916 -8483533.989 10 0 60975 52200.00000 0 21259098.794 8233392.952 -11404869.620 10 0 60975 53100.00000 0 19707216.743 7907960.500 -14104226.536 10 0 60975 54000.00000 0 17820278.946 7688461.744 -16529099.005 10 0 60975 54900.00000 0 15643837.449 7619302.458 -18632348.539 10 0 60975 55800.00000 0 13233089.069 7735988.834 -20373121.961 10 0 60975 56700.00000 0 10650749.008 8063461.348 -21717643.937 10 0 60975 57600.00000 0 7964622.949 8614889.346 -22639868.853 10 0 60975 58500.00000 0 5244979.220 9390977.257 -23121979.949 10 0 60975 59400.00000 0 2561830.640 10379811.538 -23154726.822 10 0 60975 60300.00000 0 -17761.089 11557254.599 -22737595.597 10 0 60975 61200.00000 0 -2432246.854 12887868.917 -21878809.338 10 0 60975 62100.00000 0 -4627911.943 14326332.349 -20595159.448 10 0 60975 63000.00000 0 -6560862.951 15819285.184 -18911671.916 10 0 60975 63900.00000 0 -8198598.696 17307531.462 -16861115.326 10 0 60975 64800.00000 0 -9521101.510 18728502.395 -14483360.366 10 0 60975 65700.00000 0 -10521405.350 20018878.851 -11824603.336 10 0 60975 66600.00000 0 -11205618.869 21117263.162 -8936468.648 10 0 60975 67500.00000 0 -11592404.336 21966788.551 -5875007.630 10 0 60975 68400.00000 0 -11711935.891 22517556.978 -2699612.841 10 0 60975 69300.00000 0 -11604382.245 22728803.339 528131.158 10 0 60975 70200.00000 0 -11317978.733 22570695.386 3745638.460 10 0 60975 71100.00000 0 -10906770.653 22025693.858 6890530.995 10 0 60975 72000.00000 0 -10428123.449 21089415.668 9901842.950 10 0 60975 72900.00000 0 -9940104.935 19770963.712 12721197.325 10 0 60975 73800.00000 0 -9498849.903 18092708.979 15293932.182 10 0 60975 74700.00000 0 -9156018.127 16089533.448 17570155.127 10 0 60975 75600.00000 0 -8956452.719 13807564.539 19505706.088 10 0 60975 76500.00000 0 -8936137.350 11302452.869 21063010.283 10 0 60975 77400.00000 0 -9120538.380 8637263.947 22211805.310 10 0 60975 78300.00000 0 -9523401.904 5880070.233 22929728.707 10 0 60975 79200.00000 0 -10146056.837 3101342.408 23202754.837 10 0 60975 80100.00000 0 -10977254.182 371246.952 23025472.649 10 0 60975 81000.00000 0 -11993550.355 -2243038.885 22401198.681 10 0 60975 81900.00000 0 -13160219.852 -4679884.222 21341922.577 10 0 60975 82800.00000 0 -14432660.364 -6885528.331 19868085.385 10 0 60975 83700.00000 0 -15758232.774 -8816075.014 18008193.974 10 0 60975 84600.00000 0 -17078460.002 -10439074.920 15798277.920 10 0 60975 85500.00000 0 -18331493.205 -11734630.023 13281198.401 10 0 60976 0.00000 0 -19454742.046 -12695974.190 10505821.816 10 0 60976 900.00000 0 -20387558.959 -13329506.158 7526071.965 10 0 60976 1800.00000 0 -21073862.444 -13654272.547 4399882.716 10 0 60976 2700.00000 0 -21464589.986 -13700924.769 1188066.571 10 0 60976 3600.00000 0 -21519874.456 -13510193.078 -2046874.734 10 0 60976 4500.00000 0 -21210851.457 -13130943.567 -5241975.077 10 0 60976 5400.00000 0 -20521019.890 -12617901.211 -8335039.139 10 0 60976 6300.00000 0 -19447097.090 -12029136.473 -11265862.745 10 0 60976 7200.00000 0 -17999331.416 -11423423.167 -13977413.405 10 0 60976 8100.00000 0 -16201258.396 -10857580.612 -16416947.092 10 0 60976 9000.00000 0 -14088910.183 -10383913.670 -18537038.784 10 0 60976 9900.00000 0 -11709511.337 -10047859.808 -20296506.270 10 0 60976 10800.00000 0 -9119715.618 -9885943.139 -21661209.244 10 0 60976 11700.00000 0 -6383457.641 -9924122.099 -22604708.417 10 0 60976 12600.00000 0 -3569509.252 -10176600.366 -23108772.440 10 0 60976 13500.00000 0 -748842.485 -10645150.814 -23163723.548 10 0 60976 14400.00000 0 2008091.324 -11318980.501 -22768616.106 10 0 60976 15300.00000 0 4634053.556 -12175141.809 -21931245.421 10 0 60976 16200.00000 0 7067570.356 -13179471.931 -20667987.431 10 0 60976 17100.00000 0 9255239.737 -14288020.794 -19003472.968 10 0 60976 18000.00000 0 11153699.173 -15448907.118 -16970103.348 10 0 60976 18900.00000 0 12731173.400 -16604524.486 -14607416.903 10 0 60976 19800.00000 0 13968539.737 -17694004.769 -11961318.823 10 0 60976 20700.00000 0 14859868.240 -18655835.469 -9083189.204 10 0 60976 21600.00000 0 15412415.920 -19430521.196 -6028886.492 10 0 60976 22500.00000 0 15646076.964 -19963177.613 -2857665.458 10 0 60976 23400.00000 0 15592313.412 -20205948.960 368969.410 10 0 60976 24300.00000 0 15292612.471 -20120147.683 3588453.063 10 0 60976 25200.00000 0 14796536.207 -19678026.210 6738368.699 10 0 60976 26100.00000 0 14159446.289 -18864106.309 9757652.949 10 0 60976 27000.00000 0 13439999.961 -17676009.891 12587774.343 10 0 60976 27900.00000 0 12697522.693 -16124755.857 15173862.550 10 0 60976 28800.00000 0 11989368.087 -14234509.799 17465766.880 10 0 60976 29700.00000 0 11368375.918 -12041796.064 19419024.033 10 0 60976 30600.00000 0 10880534.975 -9594203.842 20995716.879 10 0 60976 31500.00000 0 10562948.801 -6948639.946 22165208.095 10 0 60976 32400.00000 0 10442189.748 -4169199.546 22904734.880 10 0 60976 33300.00000 0 10533110.620 -1324741.891 23199853.495 10 0 60976 34200.00000 0 10838164.230 1513729.682 23044725.001 10 0 60976 35100.00000 0 11347260.078 4275776.046 22442236.458 10 0 60976 36000.00000 0 12038165.116 6894207.613 21403954.699 10 0 60976 36900.00000 0 12877432.801 9307636.100 19949912.790 10 0 60976 37800.00000 0 13821822.583 11462787.357 18108232.369 10 0 60976 38700.00000 0 14820151.200 13316479.480 15914588.069 10 0 60976 39600.00000 0 15815498.800 14837183.948 13411523.401 10 0 60976 40500.00000 0 16747677.531 16006104.723 10647630.421 10 0 60976 41400.00000 0 17555858.741 16817730.162 7676608.432 10 0 60976 42300.00000 0 18181247.698 17279834.689 4556219.705 10 0 60976 43200.00000 0 18569692.199 17412930.328 1347162.533 10 0 60976 44100.00000 0 18674113.849 17249191.628 -1888116.013 10 0 60976 45000.00000 0 18456657.968 16830899.888 -5086643.744 10 0 60976 45900.00000 0 17890469.866 16208473.297 -8186158.584 10 0 60976 46800.00000 0 16961021.023 15438167.252 -11126330.199 10 0 60976 47700.00000 0 15666927.930 14579543.297 -13849943.053 10 0 60976 48600.00000 0 14020227.988 13692814.908 -16304016.868 10 0 60976 49500.00000 0 12046100.052 12836183.391 -18440841.937 10 0 60976 50400.00000 0 9782040.840 12063277.402 -20218908.678 10 0 60976 51300.00000 0 7276531.479 11420804.733 -21603713.292 10 0 60976 52200.00000 0 4587249.870 10946515.689 -22568424.143 10 0 60976 53100.00000 0 1778903.547 10667563.769 -23094396.439 10 0 60976 54000.00000 0 -1079226.632 10599332.236 -23171526.006 10 0 60976 54900.00000 0 -3915929.889 10744775.263 -22798436.137 10 0 60976 55800.00000 0 -6660786.404 11094300.519 -21982494.756 10 0 60976 56700.00000 0 -9246853.170 11626197.228 -20739662.341 10 0 60976 57600.00000 0 -11613204.156 12307590.871 -19094174.164 10 0 60976 58500.00000 0 -13707220.269 13095883.664 -17078063.457 10 0 60976 59400.00000 0 -15486535.265 13940619.731 -14730535.009 10 0 60976 60300.00000 0 -16920558.144 14785696.158 -12097201.374 10 0 60976 61200.00000 0 -17991510.143 15571826.759 -9229196.528 10 0 60976 62100.00000 0 -18694934.686 16239154.806 -6182183.993 10 0 60976 63000.00000 0 -19039660.562 16729904.845 -3015278.533 10 0 60976 63900.00000 0 -19047221.261 16990961.979 210097.838 10 0 60976 64800.00000 0 -18750756.086 16976270.131 3431403.469 10 0 60976 65700.00000 0 -18193440.152 16648948.308 6586185.505 10 0 60976 66600.00000 0 -17426509.942 15983035.669 9613285.827 10 0 60976 67500.00000 0 -16506967.876 14964791.710 12454021.386 10 0 60976 68400.00000 0 -15495062.553 13593496.430 15053316.396 10 0 60976 69300.00000 0 -14451650.563 11881716.119 17360764.786 10 0 60976 70200.00000 0 -13435550.498 9855022.623 19331602.851 10 0 60976 71100.00000 0 -12500999.974 7551176.554 20927573.757 10 0 60976 72000.00000 0 -11695322.058 5018807.072 22117667.656 10 0 60976 72900.00000 0 -11056898.716 2315641.674 22878723.494 10 0 60976 73800.00000 0 -10613536.098 -493642.058 23195881.117 10 0 60976 74700.00000 0 -10381290.217 -3339855.057 23062874.965 10 0 60976 75600.00000 0 -10363802.510 -6151926.010 22482163.411 10 0 60976 76500.00000 0 -10552173.589 -8859613.407 21464890.768 10 0 60976 77400.00000 0 -10925381.156 -11396188.862 20030681.886 10 0 60976 78300.00000 0 -11451225.282 -13700981.005 18207272.418 10 0 60976 79200.00000 0 -12087762.120 -15721674.643 16029980.789 10 0 60976 80100.00000 0 -12785166.422 -17416269.617 13541031.100 10 0 60976 81000.00000 0 -13487944.889 -18754617.621 10788739.159 10 0 60976 81900.00000 0 -14137407.195 -19719472.648 7826576.741 10 0 60976 82800.00000 0 -14674290.166 -20307010.879 4712131.924 10 0 60976 83700.00000 0 -15041423.636 -20526798.158 1505985.728 10 0 60976 84600.00000 0 -15186324.316 -20401206.546 -1729472.691 10 0 60976 85500.00000 0 -15063606.691 -19964304.867 -4931268.464 10 0 60977 0.00000 0 -14637107.595 -19260270.742 -8037075.964 10 0 60977 900.00000 0 -13881632.825 -18341391.570 -10986442.766 10 0 60977 1800.00000 0 -12784251.198 -17265740.914 -13721973.481 10 0 60977 2700.00000 0 -11345079.399 -16094628.281 -16190454.928 10 0 60977 3600.00000 0 -9577523.972 -14889931.956 -18343895.830 10 0 60977 4500.00000 0 -7507969.328 -13711428.014 -20140461.997 10 0 60977 5400.00000 0 -5174924.345 -12614228.851 -21545288.450 10 0 60977 6300.00000 0 -2627662.968 -11646439.431 -22531152.976 10 0 60977 7200.00000 0 75584.519 -10847129.827 -23078998.528 10 0 60977 8100.00000 0 2869814.238 -10244708.825 -23178295.115 10 0 60977 9000.00000 0 5685714.707 -9855766.165 -22827234.996 10 0 60977 9900.00000 0 8452313.737 -9684430.959 -22032758.237 10 0 60977 10800.00000 0 11099696.668 -9722272.075 -20810408.937 10 0 60977 11700.00000 0 13561683.637 -9948743.408 -19184025.493 10 0 60977 12600.00000 0 15778355.476 -10332154.205 -17185271.375 10 0 60977 13500.00000 0 17698324.290 -10831122.658 -14853015.783 10 0 60977 14400.00000 0 19280655.502 -11396450.827 -12232576.246 10 0 60977 15300.00000 0 20496362.583 -11973341.460 -9374837.872 10 0 60977 16200.00000 0 21329413.586 -12503862.994 -6335266.207 10 0 60977 17100.00000 0 21777208.785 -12929558.690 -3172832.676 10 0 60977 18000.00000 0 21850510.771 -13194089.919 51126.668 10 0 60977 18900.00000 0 21572831.090 -13245802.115 3274097.139 10 0 60977 19800.00000 0 20979300.107 -13040105.262 6433593.336 10 0 60977 20700.00000 0 20115068.244 -12541568.471 9468365.717 10 0 60977 21600.00000 0 19033306.186 -11725640.205 12319582.713 10 0 60977 22500.00000 0 17792888.215 -10579921.340 14931965.774 10 0 60977 23400.00000 0 16455855.888 -9104936.841 17254855.745 10 0 60977 24300.00000 0 15084768.267 -7314372.742 19243190.373 10 0 60977 25200.00000 0 13740049.413 -5234767.210 20858374.560 10 0 60977 26100.00000 0 12477443.870 -2904667.151 22069026.935 10 0 60977 27000.00000 0 11345686.245 -373283.855 22851588.770 10 0 60977 27900.00000 0 10384482.007 2301298.114 23190783.685 10 0 60977 28800.00000 0 9622883.770 5054286.034 23079919.285 10 0 60977 29700.00000 0 9078130.894 7816629.892 22521024.678 10 0 60977 30600.00000 0 8755001.038 10517658.705 21524820.722 10 0 60977 31500.00000 0 8645701.128 13087794.033 20110522.816 10 0 60977 32400.00000 0 8730302.667 15461228.839 18305479.103 10 0 60977 33300.00000 0 8977703.598 17578460.859 16144650.028 10 0 60977 34200.00000 0 9347076.698 19388575.196 13669938.292 10 0 60977 35100.00000 0 9789743.855 20851180.869 10929381.270 10 0 60977 36000.00000 0 10251397.280 21937920.158 7976220.835 10 0 60977 36900.00000 0 10674573.681 22633487.174 4867868.352 10 0 60977 37800.00000 0 11001276.276 22936112.634 1664784.928 10 0 60977 38700.00000 0 11175632.841 22857494.268 -1570700.908 10 0 60977 39600.00000 0 11146476.105 22422175.825 -4775614.308 10 0 60977 40500.00000 0 10869735.851 21666401.151 -7887569.259 10 0 60977 41400.00000 0 10310539.967 20636492.208 -10845992.611 10 0 60977 42300.00000 0 9444934.070 19386820.303 -13593311.959 10 0 60977 43200.00000 0 8261145.623 17977457.034 -16076083.258 10 0 60977 44100.00000 0 6760337.984 16471605.032 -18246035.466 10 0 60977 45000.00000 0 4956821.628 14932917.690 -20061011.354 10 0 60977 45900.00000 0 2877712.917 13422821.434 -21485786.130 10 0 60977 46800.00000 0 562054.191 11997953.568 -22492748.167 10 0 60977 47700.00000 0 -1940568.302 10707823.381 -23062429.127 10 0 60977 48600.00000 0 -4571851.157 9592794.302 -23183873.935 10 0 60977 49500.00000 0 -7266969.256 8682470.945 -22854844.277 10 0 60977 50400.00000 0 -9957048.683 7994557.575 -22081852.502 10 0 60977 51300.00000 0 -12571814.602 7534234.462 -20880026.098 10 0 60977 52200.00000 0 -15042304.455 7294076.768 -19272805.965 10 0 60977 53100.00000 0 -17303534.333 7254517.857 -17291484.820 10 0 60977 54000.00000 0 -19297008.442 7384836.160 -14974594.944 10 0 60977 54900.00000 0 -20972968.211 7644622.898 -12367157.235 10 0 60977 55800.00000 0 -22292288.401 7985667.923 -9519806.117 10 0 60977 56700.00000 0 -23227942.283 8354183.566 -6487807.178 10 0 60977 57600.00000 0 -23765975.884 8693272.263 -3329986.400 10 0 60977 58500.00000 0 -23905951.627 8945533.664 -107591.645 10 0 60977 59400.00000 0 -23660843.837 9055701.058 3116891.711 10 0 60977 60300.00000 0 -23056391.335 8973195.833 6280948.198 10 0 60977 61200.00000 0 -22129934.908 8654492.134 9323239.455 10 0 60977 62100.00000 0 -20928788.859 8065191.828 12184788.096 10 0 60977 63000.00000 0 -19508215.095 7181722.061 14810115.587 10 0 60977 63900.00000 0 -17929084.676 5992583.416 17148312.453 10 0 60977 64800.00000 0 -16255324.529 4499095.379 19154020.577 10 0 60977 65700.00000 0 -14551255.824 2715606.751 20788309.091 10 0 60977 66600.00000 0 -12878934.821 669160.764 22019427.341 10 0 60977 67500.00000 0 -11295606.789 -1601372.738 22823420.837 10 0 60977 68400.00000 0 -9851378.779 -4046663.693 23184598.493 10 0 60977 69300.00000 0 -8587207.973 -6608731.710 23095842.195 10 0 60977 70200.00000 0 -7533289.248 -9223126.006 22558752.470 10 0 60977 71100.00000 0 -6707909.086 -11821386.431 21583626.975 10 0 60977 72000.00000 0 -6116813.709 -14333684.663 20189271.463 10 0 60977 72900.00000 0 -5753117.939 -16691536.816 18402645.949 10 0 60977 73800.00000 0 -5597758.753 -18830475.320 16258351.856 10 0 60977 74700.00000 0 -5620474.695 -20692568.998 13797969.051 10 0 60977 75600.00000 0 -5781270.053 -22228686.181 11069254.667 10 0 60977 76500.00000 0 -6032302.086 -23400405.960 8125218.568 10 0 60977 77400.00000 0 -6320111.420 -24181497.017 5023093.022 10 0 60977 78300.00000 0 -6588100.817 -24558901.457 1823216.619 10 0 60977 79200.00000 0 -6779156.614 -24533181.833 -1412145.520 10 0 60977 80100.00000 0 -6838300.733 -24118412.209 -4620021.522 10 0 60977 81000.00000 0 -6715259.587 -23341517.779 -7737967.802 10 0 60977 81900.00000 0 -6366839.594 -22241091.128 -10705294.219 10 0 60977 82800.00000 0 -5759007.229 -20865735.475 -13464254.300 10 0 60977 83700.00000 0 -4868584.156 -19272005.507 -15961176.341 10 0 60977 84600.00000 0 -3684484.536 -17522033.346 -18147512.598 10 0 60977 85500.00000 0 -2208441.221 -15680940.448 -19980785.649 99